Location: Famechon
(49.7599°N, 2.0615°E)
Time: 22:25:18
(UTC+00:00)

Cosmos 1741 Rocket - Pass Details

Date: 25 March 2025
Orbit: 758 x 778 km, 74.0° (Epoch: 28 April)

Event Time Altitude Azimuth Distance (km) Brightness Sun altitude
Rises 18:46:03 0° 275° (W) 3,218 9.8 -6.1°
Reaches altitude 10° 18:51:08 10° 318° (NW) 2,297 7.4 -7.0°
Maximum altitude 18:51:48 10° 325° (NW) 2,283 7.2 -7.1°
Drops below altitude 10° 18:52:28 10° 333° (NNW) 2,299 7.1 -7.2°
Sets 18:57:35 0° 16° (NNE) 3,232 7.2 -8.0°
